GW4658 Weather Reports


time (UTC)temp
C
wind
direction
speed
KPH
gust
KPH
rain 1hr
cm
rain 24hr
cm
rain mn
cm
humidity
%
barometer
mb
20260906164525 22 179 6.4 17.7 0.00 0.00 0.00 82 1023.1
20260906163024 22 138 9.7 14.5 0.00 0.00 0.00 84 1023.1
20260906161517 22 110 1.6 4.8 0.00 0.00 0.00 85 1023.0
20260906160028 21 283 0.0 3.2 0.00 0.00 0.00 87 1023.4
20260906154511 21 118 1.6 4.8 0.00 0.00 0.00 88 1023.3
20260906153005 20 137 1.6 11.3 0.00 0.00 0.00 89 1023.3
20260906151501 20 359 4.8 16.1 0.00 0.00 0.00 89 1023.3
20260906144614 20 359 6.4 14.5 0.00 0.00 0.00 90 1023.0
20260906143108 20 359 4.8 8.0 0.00 0.00 0.00 90 1023.0
20260906141554 20 359 4.8 17.7 0.00 0.00 0.00 91 1022.9
20260906140045 19 359 6.4 12.9 0.00 0.00 0.00 92 1022.6
20260906134544 19 359 8.0 17.7 0.00 0.00 0.00 92 1022.6
20260906133032 18 359 6.4 20.9 0.00 0.00 0.00 92 1022.6
20260906131527 18 359 9.7 17.7 0.00 0.00 0.00 92 1022.4
20260906130037 18 359 6.4 17.7 0.00 0.00 0.00 92 1022.3
20260906124521 18 359 11.3 19.3 0.00 0.00 0.00 92 1022.2
20260906123017 18 359 6.4 16.1 0.00 0.00 0.00 92 1022.4
20260906121512 18 359 6.4 16.1 0.00 0.00 0.00 92 1022.3
20260906120009 19 359 8.0 14.5 0.00 0.00 0.00 92 1022.1
20260906114507 19 359 3.2 16.1 0.00 0.00 0.00 92 1022.1
20260906113002 19 359 3.2 8.0 0.00 0.00 0.00 93 1021.9
20260906111601 18 359 4.8 9.7 0.00 0.00 0.00 93 1021.6
20260906110100 18 359 4.8 9.7 0.00 0.00 0.00 93 1021.5
20260906104553 19 359 3.2 8.0 0.00 0.00 0.00 93 1021.4
20260906103052 19 359 3.2 8.0 0.00 0.00 0.00 93 1021.6
20260906101545 19 359 1.6 6.4 0.00 0.00 0.00 93 1021.3
20260906100041 19 359 6.4 12.9 0.00 0.00 0.00 92 1020.8
20260906094538 19 359 4.8 9.7 0.00 0.00 0.00 92 1020.7
20260906093033 20 359 4.8 12.9 0.00 0.00 0.00 92 1020.7
20260906091531 20 359 8.0 12.9 0.00 0.00 0.00 91 1020.6
20260906090025 20 359 6.4 16.1 0.00 0.00 0.00 91 1020.7
20260906084525 20 359 9.7 16.1 0.00 0.00 0.00 91 1020.6
20260906083023 20 359 4.8 12.9 0.00 0.00 0.00 91 1020.6
20260906081529 20 359 4.8 14.5 0.00 0.00 0.00 91 1020.5
20260906080010 20 359 9.7 16.1 0.00 0.00 0.00 91 1020.5
20260906074505 21 72 4.8 14.5 0.00 0.00 0.00 91 1020.7
20260906073110 21 82 8.0 17.7 0.00 0.00 0.00 90 1020.6
20260906071610 21 106 8.0 16.1 0.00 0.00 0.00 90 1020.8
20260906070056 21 64 6.4 16.1 0.00 0.00 0.00 89 1021.0
20260906064552 21 73 6.4 16.1 0.00 0.00 0.00 89 1021.3
20260906063049 21 60 8.0 17.7 0.00 0.00 0.00 89 1021.0
20260906061545 21 50 12.9 19.3 0.00 0.00 0.00 89 1021.1
20260906060041 21 97 8.0 17.7 0.00 0.00 0.00 89 1020.8
20260906054538 21 88 6.4 16.1 0.00 0.00 0.00 89 1020.9
20260906053037 21 35 8.0 14.5 0.00 0.00 0.00 88 1020.9
20260906051533 22 68 8.0 12.9 0.00 0.00 0.00 88 1020.7
20260906050048 22 87 3.2 9.7 0.00 0.00 0.00 88 1020.6
20260906044522 22 50 8.0 12.9 0.00 0.00 0.00 88 1020.8
20260906043018 22 91 4.8 8.0 0.00 0.00 0.00 89 1020.8
20260906041516 22 4 1.6 4.8 0.00 0.00 0.00 88 1020.8
20260906040011 22 251 0.0 4.8 0.00 0.00 0.00 88 1020.6
20260906034506 22 37 8.0 16.1 0.00 0.00 0.00 89 1020.1
20260906033002 22 56 4.8 6.4 0.00 0.00 0.00 88 1020.3
20260906031603 22 10 4.8 6.4 0.00 0.00 0.00 87 1020.5
20260906030133 22 318 1.6 3.2 0.00 0.00 0.00 87 1020.4
20260906024554 22 26 1.6 3.2 0.00 0.00 0.00 88 1020.0
20260906023053 22 42 1.6 4.8 0.00 0.00 0.00 88 1019.7
20260906021606 22 39 3.2 6.4 0.00 0.00 0.00 87 1019.5
20260906020043 23 35 4.8 6.4 0.00 0.00 0.00 86 1019.6
20260906014538 23 39 3.2 9.7 0.00 0.00 0.00 85 1019.2
20260906013035 23 70 4.8 11.3 0.00 0.00 0.00 84 1018.8
20260906011533 23 99 3.2 9.7 0.00 0.00 0.00 84 1018.5
20260906010026 23 89 6.4 16.1 0.00 0.00 0.00 83 1018.5
20260906004524 24 65 9.7 22.5 0.00 0.00 0.00 83 1018.5
20260906003018 25 93 11.3 25.7 0.00 0.05 0.00 82 1018.3
20260906001514 25 88 14.5 22.5 0.00 0.05 0.00 81 1018.3
20260906000010 25 81 11.3 19.3 0.00 0.05 0.00 80 1018.3
20260905234504 26 40 8.0 14.5 0.00 0.05 0.00 79 1018.3
20260905233001 26 62 11.3 24.1 0.00 0.05 0.00 78 1018.1
20260905231602 26 83 14.5 20.9 0.00 0.05 0.00 78 1018.1
20260905230057 26 54 11.3 27.4 0.00 0.05 0.00 78 1018.1
20260905224553 26 53 11.3 24.1 0.00 0.05 0.00 79 1018.0
20260905223050 26 59 12.9 19.3 0.00 0.28 0.00 79 1018.1
20260905221544 26 46 12.9 19.3 0.00 0.28 0.00 81 1018.2
20260905220040 26 67 11.3 22.5 0.00 0.28 0.00 79 1018.2
20260905214533 26 43 12.9 20.9 0.00 0.28 0.00 80 1018.3
20260905213029 26 21 8.0 17.7 0.00 0.28 0.00 79 1018.6
20260905211525 26 85 9.7 20.9 0.00 0.28 0.00 78 1018.6
20260905210023 26 41 6.4 22.5 0.00 0.28 0.00 80 1018.6
20260905204517 26 48 11.3 19.3 0.00 0.28 0.00 81 1018.6
20260905203015 26 49 9.7 16.1 0.00 0.28 0.00 80 1018.7
20260905201508 26 30 8.0 20.9 0.00 0.28 0.00 81 1018.7
20260905200004 26 43 11.3 19.3 0.00 0.28 0.00 82 1018.5
20260905194604 27 42 12.9 19.3 0.00 0.28 0.00 80 1018.9
20260905193059 27 18 6.4 16.1 0.00 0.28 0.00 80 1019.1
20260905191603 27 52 9.7 17.7 0.00 0.28 0.00 79 1018.9
20260905190051 27 50 9.7 19.3 0.00 0.28 0.00 79 1019.1
20260905184602 28 52 8.0 17.7 0.00 0.28 0.00 79 1019.0
20260905183043 27 37 11.3 20.9 0.00 0.28 0.00 79 1018.9
20260905181539 28 43 9.7 19.3 0.00 0.28 0.00 79 1019.0
20260905180035 28 41 8.0 19.3 0.00 0.28 0.00 80 1018.9
20260905174539 28 29 9.7 17.7 0.00 0.28 0.00 80 1018.9
20260905173028 27 37 12.9 19.3 0.00 0.28 0.00 81 1019.0
20260905171523 27 47 9.7 19.3 0.00 0.28 0.00 81 1019.0
20260905170019 27 35 9.7 19.3 0.00 0.28 0.00 80 1019.0